Ora Direzione Vento Velocita' Vento Media Vento Raffica Max. Temperatura Wind Chill Pioggia Pressione
17:24:46.0316 °(NW)0.0 Kts3.1 Kts15.7 Kts18.5 °C0.0 °C0.0 mm1030.2 Hpa
17:03:08.0316 °(NW)3.1 Kts3.1 Kts15.7 Kts18.5 °C0.0 °C0.0 mm1030.2 Hpa
16:43:35.0307 °(NW)4.2 Kts3.1 Kts15.7 Kts18.7 °C0.0 °C0.0 mm1030.2 Hpa
16:23:56.0305 °(NW)3.1 Kts2.1 Kts15.7 Kts19.1 °C0.0 °C0.0 mm1030.2 Hpa
16:04:09.0303 °(WNW)5.8 Kts3.4 Kts15.7 Kts19.2 °C0.0 °C0.0 mm1030.2 Hpa
15:41:14.0287 °(WNW)8.1 Kts3.9 Kts15.7 Kts19.4 °C0.0 °C0.0 mm1030.2 Hpa
15:24:02.0299 °(WNW)6.8 Kts5.8 Kts15.7 Kts19.4 °C0.0 °C0.0 mm1030.2 Hpa
15:04:10.0296 °(WNW)7.1 Kts6.3 Kts15.7 Kts19.2 °C0.0 °C0.0 mm1031.2 Hpa
14:43:48.0297 °(WNW)8.9 Kts6.8 Kts15.7 Kts19.3 °C0.0 °C0.0 mm1030.2 Hpa
14:24:38.0311 °(NW)9.7 Kts6.0 Kts15.7 Kts19.5 °C0.0 °C0.0 mm1031.2 Hpa
14:03:01.0284 °(WNW)6.8 Kts6.0 Kts15.7 Kts19.4 °C0.0 °C0.0 mm1031.2 Hpa
13:43:34.0287 °(WNW)8.1 Kts4.2 Kts15.7 Kts19.3 °C0.0 °C0.0 mm1031.2 Hpa
13:24:13.0275 °(W)9.2 Kts9.2 Kts15.7 Kts19.3 °C0.0 °C0.0 mm1031.2 Hpa
13:02:41.0264 °(W)6.8 Kts5.8 Kts15.7 Kts19.6 °C0.0 °C0.0 mm1031.2 Hpa
12:43:21.0266 °(W)7.1 Kts6.8 Kts15.7 Kts19.5 °C0.0 °C0.0 mm1031.2 Hpa
12:24:04.0205 °(SSW)3.9 Kts3.4 Kts15.7 Kts19.8 °C0.0 °C0.0 mm1031.2 Hpa
12:04:45.0191 °(S)4.7 Kts4.7 Kts15.7 Kts20.3 °C0.0 °C0.0 mm1031.2 Hpa
11:43:19.0156 °(SSE)3.9 Kts3.7 Kts15.7 Kts20.5 °C0.0 °C0.0 mm1031.2 Hpa
11:24:08.0114 °(ESE)2.9 Kts1.8 Kts15.7 Kts19.6 °C0.0 °C0.0 mm1032.2 Hpa
11:02:47.0121 °(ESE)4.7 Kts2.9 Kts15.7 Kts19.8 °C0.0 °C0.0 mm1032.2 Hpa